This demonstration page uses our WeatherBlox Daily Observations layout. Learn more.

Left ArrowRight Arrow

38.80484, -77.04692

Hourly Observations for October 30, 2021

Temp ( °F °C ) Dew Point ( °F °C ) Humidity (%) Winds ( mph kmh ) Pressure ( in mb ) Visibility ( mi km ) Precip ( " mm )
12:52 am 00:52 Cloudy with Drizzle 58 14.4 55 12.8 90 90 WNW 6 9 29.51 999 10 16 0.00 0.00
1:18 am 01:18 Cloudy 57 13.9 54 12.2 90 90 W 3 6 29.52 1000 10 16 0.00 0.00
1:52 am 01:52 Cloudy with Drizzle 57 13.9 54 12.2 90 90 WSW 3 6 29.53 1000 4 6 0.00 0.00
2:52 am 02:52 Cloudy with Light Rain 57 13.9 54 12.2 90 90 Calm 29.52 1000 6 10 0.04 1.02
3:22 am 03:22 Cloudy 57 13.9 55 12.8 93 93 E 3 6 29.52 1000 10 16 0.00 0.00
3:32 am 03:32 Cloudy 57 13.9 55 12.8 93 93 ESE 3 6 29.51 999 10 16 0.00 0.00
3:47 am 03:47 Cloudy 57 14 55 13 94 94 SE 6 9 29.51 999 8 13 0.00 0.00
3:52 am 03:52 Cloudy 58 14.4 55 12.8 90 90 SE 5 7 29.51 999 7 11 0.00 0.00
4:01 am 04:01 Cloudy with Mist and Fog 58 14.4 55 12.8 90 90 SE 5 7 29.51 999 6 10 0.00 0.00
4:26 am 04:26 Cloudy 58 14.4 55 12.8 90 90 S 7 11 29.52 1000 9 14 0.00 0.00
4:52 am 04:52 Cloudy with Drizzle 59 15 55 12.8 87 87 S 10 17 29.51 999 10 16 0.00 0.00
5:52 am 05:52 Cloudy 59 15 55 12.8 87 87 S 14 22 29.52 1000 10 16 0.00 0.00
6:24 am 06:24 Cloudy 59 15 54 12.2 83 83 S 15 24 29.54 1000 10 16 0.00 0.00
6:52 am 06:52 Cloudy 58 14.4 53 11.7 84 84 S 15 24 29.54 1001 10 16 0.00 0.00
7:52 am 07:52 Mostly Cloudy 56 13.3 52 11.1 87 87 S 15 24 29.55 1001 10 16 0.00 0.00
7:58 am 07:58 Partly Cloudy 56 13.3 52 11.1 87 87 S 14 22 29.56 1001 10 16 0.00 0.00
8:52 am 08:52 Mostly Cloudy 56 13.3 51 10.6 84 84 SSW 12 19 29.57 1002 10 16 0.00 0.00
9:52 am 09:52 Mostly Cloudy 58 14.4 51 10.6 78 78 S 13 20 29.58 1002 10 16 0.00 0.00
9:55 am 09:55 Mostly Cloudy 58 14.4 51 10.6 78 78 S 10 17 29.59 1002 10 16 0.00 0.00
10:52 am 10:52 Mostly Cloudy 60 15.6 52 11.1 75 75 S 9 15 29.58 1002 10 16 0.00 0.00
11:52 am 11:52 Mostly Cloudy 61 16.1 51 10.6 70 70 S 8 13 29.58 1002 10 16 0.00 0.00
12:52 pm 12:52 Mostly Cloudy 61 16.1 50 10 67 67 S 9 15 29.56 1001 10 16 0.00 0.00
1:52 pm 13:52 Mostly Cloudy 63 17.2 50 10 63 63 S 14 22 29.55 1001 10 16 0.00 0.00
2:52 pm 14:52 Cloudy 62 16.7 49 9.4 62 62 S 12 19 29.56 1001 10 16 0.00 0.00
3:52 pm 15:52 Mostly Cloudy 62 16.7 50 10 65 65 S 7 11 29.56 1001 10 16 0.00 0.00
4:52 pm 16:52 Mostly Cloudy 62 16.7 50 10 65 65 S 6 9 29.55 1001 10 16 0.00 0.00
5:52 pm 17:52 Cloudy 61 16.1 50 10 67 67 S 5 7 29.55 1001 10 16 0.00 0.00
6:52 pm 18:52 Cloudy 61 16.1 50 10 67 67 S 3 6 29.57 1001 10 16 0.00 0.00
7:52 pm 19:52 Cloudy 61 16.1 51 10.6 70 70 WSW 9 15 29.58 1002 10 16 0.00 0.00
8:52 pm 20:52 Cloudy 59 15 50 10 72 72 SW 5 7 29.59 1002 10 16 0.00 0.00
9:52 pm 21:52 Mostly Cloudy 58 14.4 49 9.4 72 72 Calm 29.59 1002 10 16 0.00 0.00
10:52 pm 22:52 Partly Cloudy 57 13.9 49 9.4 74 74 WSW 7 11 29.60 1002 10 16 0.00 0.00
11:52 pm 23:52 Partly Cloudy 56 13.3 50 10 81 81 WSW 6 9 29.58 1002 10 16 0.00 0.00

Powered by AerisWeather